ON3FV Weather Reports


Display with metric or nautical units.
time (UTC)temp
F
wind
direction
speed
MPH
gust
MPH
rain 1hr
in
rain 24hr
in
rain mn
in
humidity
%
barometer
mb
20260502212922 60 0.0 0.0 0.00 0.00 0.00 86 1012.0
20260502211914 60 0.0 0.0 0.00 0.00 0.00 85 1012.0
20260502211423 60 0.0 0.0 0.00 0.00 0.00 85 1012.0
20260502210911 60 0.0 0.0 0.00 0.00 0.00 85 1011.9
20260502210441 60 0.0 0.0 0.00 0.00 0.00 85 1011.9
20260502205909 60 0.0 0.0 0.00 0.00 0.00 85 1011.9
20260502205409 60 0.0 0.0 0.00 0.00 0.00 85 1011.9
20260502204907 60 0.0 0.0 0.00 0.00 0.00 85 1012.0
20260502204406 60 0.0 0.0 0.00 0.00 0.00 85 1012.0
20260502203907 60 0.0 0.0 0.00 0.00 0.00 85 1012.0
20260502203404 60 0.0 0.0 0.00 0.00 0.00 85 1012.0
20260502202903 60 0.0 0.0 0.00 0.00 0.00 85 1012.0
20260502202403 60 0.0 0.0 0.00 0.00 0.00 85 1012.0
20260502201901 60 0.0 0.0 0.00 0.00 0.00 85 1012.0
20260502201401 60 0.0 0.0 0.00 0.00 0.00 85 1012.0
20260502200859 60 0.0 0.0 0.00 0.00 0.00 85 1012.0
20260502200419 60 0.0 0.0 0.00 0.00 0.00 85 1012.0
20260502195857 61 0.0 0.0 0.00 0.00 0.00 85 1012.0
20260502195417 61 0.0 0.0 0.00 0.00 0.00 85 1012.0
20260502194856 61 0.0 0.0 0.00 0.00 0.00 85 1012.0
20260502194357 61 0.0 0.0 0.00 0.00 0.00 85 1012.0
20260502193853 61 0.0 0.0 0.00 0.00 0.00 85 1012.1
20260502193353 61 0.0 0.0 0.00 0.00 0.00 85 1012.1
20260502192911 61 0.0 0.0 0.00 0.00 0.00 85 1012.1
20260502192352 61 0.0 0.0 0.00 0.00 0.00 85 1012.1
20260502191850 61 0.0 0.0 0.00 0.00 0.00 84 1012.2
20260502191349 61 0.0 0.0 0.00 0.00 0.00 84 1012.2
20260502190847 62 0.0 0.0 0.00 0.00 0.00 84 1012.2
20260502190346 62 0.0 0.0 0.00 0.00 0.00 84 1012.2
20260502185846 62 0.0 0.0 0.00 0.00 0.00 83 1012.4
20260502185345 62 0.0 0.0 0.00 0.00 0.00 83 1012.4
20260502184843 62 0.0 0.0 0.00 0.00 0.00 81 1012.4
20260502184343 62 0.0 0.0 0.00 0.00 0.00 81 1012.4
20260502183902 63 0.0 0.0 0.00 0.00 0.00 79 1012.6
20260502183340 63 0.0 0.0 0.00 0.00 0.00 79 1012.6
20260502182840 64 0.0 0.0 0.00 0.00 0.00 77 1012.8
20260502182339 64 0.0 0.0 0.00 0.00 0.00 77 1012.8
20260502181838 65 0.0 0.0 0.00 0.00 0.00 75 1013.1
20260502181337 65 0.0 0.0 0.00 0.00 0.00 75 1013.1
20260502180835 67 0.0 0.0 0.00 0.00 0.00 72 1013.4
20260502180335 67 0.0 0.0 0.00 0.00 0.00 72 1013.4
20260502170322 73 0.0 0.0 0.00 0.00 0.00 64 1012.1
20260502164319 73 0.0 0.0 0.00 0.00 0.00 63 1012.5
20260502163818 74 0.0 0.0 0.00 0.00 0.00 63 1012.5
20260502163316 74 0.0 0.0 0.00 0.00 0.00 63 1012.5
20260502162816 74 0.0 0.0 0.00 0.00 0.00 62 1012.7
20260502162314 74 0.0 0.0 0.00 0.00 0.00 62 1012.7
20260502161814 74 0.0 0.0 0.00 0.00 0.00 62 1013.0
20260502161312 74 0.0 0.0 0.00 0.00 0.00 62 1013.0
20260502160812 75 0.0 0.0 0.00 0.00 0.00 62 1013.1
20260502160311 75 0.0 0.0 0.00 0.00 0.00 62 1013.1
20260502152323 75 0.0 0.0 0.00 0.00 0.00 63 1013.6
20260502151802 75 0.0 0.0 0.00 0.00 0.00 63 1013.8
20260502151301 75 0.0 0.0 0.00 0.00 0.00 63 1013.8
20260502150801 75 0.0 0.0 0.00 0.00 0.00 63 1014.0
20260502150258 75 0.0 0.0 0.00 0.00 0.00 63 1014.0
20260502130735 73 0.0 0.0 0.00 0.00 0.00 68 1015.8
20260502130235 73 0.0 0.0 0.00 0.00 0.00 68 1015.8
20260502123729 73 0.0 0.0 0.00 0.00 0.00 70 1016.2
20260502123249 73 0.0 0.0 0.00 0.00 0.00 70 1016.2
20260502122727 72 0.0 0.0 0.00 0.00 0.00 72 1016.3
20260502122227 72 0.0 0.0 0.00 0.00 0.00 72 1016.3
20260502121725 72 0.0 0.0 0.00 0.00 0.00 71 1016.3
20260502121225 72 0.0 0.0 0.00 0.00 0.00 71 1016.3
20260502120724 72 0.0 0.0 0.00 0.00 0.00 71 1016.5
20260502120223 72 0.0 0.0 0.00 0.00 0.00 71 1016.5
20260502115722 71 0.0 0.0 0.00 0.00 0.00 71 1016.6
20260502115221 71 0.0 0.0 0.00 0.00 0.00 71 1016.6
20260502114720 71 0.0 0.0 0.00 0.00 0.00 72 1016.7
20260502113717 71 0.0 0.0 0.00 0.00 0.00 70 1016.8
20260502113217 71 0.0 0.0 0.00 0.00 0.00 70 1016.8
20260502112735 71 0.0 0.0 0.00 0.00 0.00 73 1017.0
20260502112216 71 0.0 0.0 0.00 0.00 0.00 73 1017.0
20260502111714 71 0.0 0.0 0.00 0.00 0.00 73 1017.0
20260502111213 71 0.0 0.0 0.00 0.00 0.00 73 1017.0
20260502110712 71 0.0 0.0 0.00 0.00 0.00 75 1017.1
20260502110250 71 0.0 0.0 0.00 0.00 0.00 75 1017.1
20260502105710 70 0.0 0.0 0.00 0.00 0.00 74 1017.3
20260502105208 70 0.0 0.0 0.00 0.00 0.00 74 1017.3
20260502104708 70 0.0 0.0 0.00 0.00 0.00 75 1017.4
20260502104206 70 0.0 0.0 0.00 0.00 0.00 75 1017.4
20260502103706 70 0.0 0.0 0.00 0.00 0.00 76 1017.6
20260502103204 70 0.0 0.0 0.00 0.00 0.00 76 1017.6
20260502102705 69 0.0 0.0 0.00 0.00 0.00 76 1017.7
20260502102203 69 0.0 0.0 0.00 0.00 0.00 76 1017.7
20260502101702 69 0.0 0.0 0.00 0.00 0.00 76 1017.7
20260502101241 69 0.0 0.0 0.00 0.00 0.00 76 1017.7
20260502100700 69 0.0 0.0 0.00 0.00 0.00 76 1017.7
20260502100159 69 0.0 0.0 0.00 0.00 0.00 76 1017.9
20260502091149 69 0.0 0.0 0.00 0.00 0.00 77 1018.1
20260502090708 69 0.0 0.0 0.00 0.00 0.00 77 1018.1
20260502090209 69 0.0 0.0 0.00 0.00 0.00 76 1018.2
20260502071126 62 0.0 0.0 0.00 0.00 0.00 84 1018.1
20260502070624 62 0.0 0.0 0.00 0.00 0.00 84 1018.1
20260502070123 62 0.0 0.0 0.00 0.00 0.00 84 1018.3
20260502065622 62 0.0 0.0 0.00 0.00 0.00 84 1018.3
20260502065122 61 0.0 0.0 0.00 0.00 0.00 85 1018.2
20260502064620 61 0.0 0.0 0.00 0.00 0.00 85 1018.2
20260502064120 60 0.0 0.0 0.00 0.00 0.00 85 1018.2
20260502063618 60 0.0 0.0 0.00 0.00 0.00 85 1018.2
20260502063138 59 0.0 0.0 0.00 0.00 0.00 84 1018.2
20260502062615 59 0.0 0.0 0.00 0.00 0.00 84 1018.2
20260502062136 59 0.0 0.0 0.00 0.00 0.00 84 1018.1
20260502061615 59 0.0 0.0 0.00 0.00 0.00 84 1018.1
20260502061132 59 0.0 0.0 0.00 0.00 0.00 84 1018.0
20260502060612 59 0.0 0.0 0.00 0.00 0.00 84 1018.0
20260502060111 58 0.0 0.0 0.00 0.00 0.00 84 1018.0